This demonstration page uses our WeatherBlox Daily Observations layout. Learn more.

Left ArrowRight Arrow

38.20091, -84.87328

Hourly Observations for January 22, 2016

Temp ( °F °C ) Dew Point ( °F °C ) Humidity (%) Winds ( mph kmh ) Pressure ( in mb ) Visibility ( mi km ) Precip ( " mm )
12:53 am 00:53 Cloudy 23 -5 15 -9.4 72 72 ENE 9 15 30.15 1021 10 16 0.00 0.00
1:53 am 01:53 Cloudy 23 -5 15 -9.4 72 72 NE 10 17 30.13 1020 10 16 0.00 0.00
2:53 am 02:53 Cloudy 23 -5 15 -9.4 72 72 NE 9 15 30.10 1019 10 16 0.00 0.00
3:53 am 03:53 Cloudy 24 -4.4 14 -10 65 65 NE 14 22 30.08 1019 10 16 0.00 0.00
4:53 am 04:53 Cloudy 24 -4.4 13 -10.6 62 62 ENE 14 22 30.06 1018 10 16 0.00 0.00
5:53 am 05:53 Cloudy 25 -3.9 13 -10.6 60 60 NE 9 15 30.04 1017 10 16 0.00 0.00
6:53 am 06:53 Cloudy 25 -3.9 13 -10.6 60 60 NE 8 13 30.02 1017 10 16 0.00 0.00
7:53 am 07:53 Cloudy 25 -3.9 12 -11.1 58 58 NE 14 22 29.98 1015 10 16 0.00 0.00
8:53 am 08:53 Cloudy with Light Snow 25 -3.9 12 -11.1 58 58 NE 15 24 29.99 1016 6 10 0.00 0.03
9:12 am 09:12 Cloudy with Light Snow 26 -3.3 12 -11.1 55 55 NE 12 19 30.03 1017 6 10 0.00 0.03
9:21 am 09:21 Cloudy with Light Snow 25 -3.9 14 -10 63 63 NE 12 19 30.03 1017 2 3 0.00 0.03
9:30 am 09:30 Mostly Cloudy with Light Snow 25 -3.9 15 -9.4 66 66 NE 17 28 30.00 1016 1 1 0.00 0.03
9:43 am 09:43 Mostly Cloudy with Light Snow 24 -4.4 16 -8.9 71 71 NNE 9 15 30.03 1017 1 1 0.00 0.03
9:53 am 09:53 Mostly Cloudy with Light Snow 24 -4.4 17 -8.3 75 75 NNE 14 22 29.98 1015 1 2 0.00 0.03
10:03 am 10:03 Cloudy with Light Snow 24 -4.4 17 -8.3 75 75 NNE 14 22 30.00 1016 1 2 0.00 0.03
10:22 am 10:22 Cloudy with Light Snow 25 -3.9 18 -7.8 75 75 NNE 12 19 30.00 1016 1 2 0.00 0.03
10:33 am 10:33 Cloudy with Light Snow 25 -3.9 17 -8.3 72 72 NNE 13 20 30.03 1017 2 3 0.00 0.03
10:45 am 10:45 Cloudy with Light Snow 25 -3.9 17 -8.3 72 72 NNE 15 24 30.03 1017 2 3 0.00 0.03
10:53 am 10:53 Cloudy with Light Snow 25 -3.9 17 -8.3 72 72 NNE 13 20 29.99 1016 1 2 0.00 0.03
11:10 am 11:10 Cloudy with Light Snow 25 -3.9 18 -7.8 75 75 NNE 13 20 30.03 1017 1 2 0.00 0.03
11:28 am 11:28 Cloudy with Light Snow 25 -3.9 19 -7.2 78 78 NNE 12 19 30.00 1016 1 2 0.00 0.03
11:39 am 11:39 Cloudy with Light Snow 25 -3.9 19 -7.2 78 78 NNE 14 22 30.00 1016 1 1 0.00 0.03
11:53 am 11:53 Mostly Cloudy with Snow 25 -3.9 19 -7.2 78 78 NNE 10 17 29.96 1014 1 1 0.00 0.03
12:04 pm 12:04 Mostly Cloudy with Snow 24 -4.4 20 -6.7 84 84 N 13 20 29.97 1015 0 0 0.00 0.03
12:29 pm 12:29 Mostly Cloudy with Snow 24 -4.4 20 -6.7 84 84 NNE 14 22 29.97 1015 0 0 0.00 0.03
12:50 pm 12:50 Cloudy with Snow 25 -4 19 -7 80 80 NNE 12 19 29.94 1014 1 1 0.00 0.03
12:53 pm 12:53 Cloudy with Snow 24 -4.4 20 -6.7 84 84 NNE 10 17 29.92 1013 1 1 0.00 0.03
1:29 pm 13:29 Cloudy with Light Snow 25 -3.9 21 -6.1 85 85 NNE 14 22 29.91 1013 1 1 0.00 0.03
1:37 pm 13:37 Cloudy with Light Snow 25 -3.9 21 -6.1 85 85 NNE 13 20 29.91 1013 1 1 0.00 0.03
1:53 pm 13:53 Cloudy with Light Snow 26 -3.3 21 -6.1 81 81 NNE 14 22 29.88 1012 1 1 0.00 0.03
2:05 pm 14:05 Cloudy with Light Snow 26 -3.3 21 -6.1 81 81 NNE 12 19 29.91 1013 1 2 0.00 0.03
2:36 pm 14:36 Cloudy with Light Snow 26 -3.3 21 -6.1 81 81 NNE 15 24 29.88 1012 1 1 0.00 0.03
2:50 pm 14:50 Cloudy with Light Snow 27 -3 21 -6 80 80 NNE 13 20 29.88 1012 1 1 0.00 0.03
2:53 pm 14:53 Cloudy with Light Snow 26 -3.3 21 -6.1 81 81 NNE 10 17 29.86 1011 1 2 0.00 0.03
3:04 pm 15:04 Cloudy with Light Snow 26 -3.3 21 -6.1 81 81 NNE 14 22 29.88 1012 1 2 0.00 0.03
3:17 pm 15:17 Cloudy with Light Snow 26 -3.3 21 -6.1 81 81 NNE 10 17 29.88 1012 1 1 0.00 0.03
3:41 pm 15:41 Cloudy with Light Snow 26 -3.3 21 -6.1 81 81 N 14 22 29.88 1012 1 2 0.00 0.03
3:50 pm 15:50 Cloudy with Light Snow 27 -3 21 -6 80 80 N 15 24 29.88 1012 1 2 0.00 0.03
3:53 pm 15:53 Cloudy with Light Snow 25 -3.9 21 -6.1 85 85 N 10 17 29.85 1011 1 2 0.00 0.03
4:01 pm 16:01 Cloudy with Light Snow 25 -3.9 21 -6.1 85 85 N 14 22 29.88 1012 1 2 0.00 0.03
4:07 pm 16:07 Cloudy with Light Snow 25 -3.9 21 -6.1 85 85 N 15 24 29.88 1012 1 2 0.00 0.03
4:23 pm 16:23 Cloudy with Light Snow 25 -3.9 21 -6.1 85 85 N 9 15 29.88 1012 1 1 0.00 0.03
4:50 pm 16:50 Cloudy with Light Snow 25 -4 21 -6 86 86 N 15 24 29.91 1013 1 1 0.00 0.03
4:53 pm 16:53 Cloudy with Light Snow 25 -3.9 21 -6.1 85 85 N 18 30 29.88 1012 1 1 0.00 0.03
5:05 pm 17:05 Cloudy with Light Snow 25 -3.9 21 -6.1 85 85 N 15 24 29.91 1013 1 1 0.00 0.03
5:13 pm 17:13 Cloudy with Light Snow 25 -3.9 21 -6.1 85 85 N 14 22 29.91 1013 1 1 0.00 0.03
5:23 pm 17:23 Cloudy with Light Snow 25 -3.9 21 -6.1 85 85 N 15 24 29.91 1013 1 2 0.00 0.03
5:32 pm 17:32 Cloudy with Light Snow 26 -3.3 21 -6.1 81 81 N 12 19 29.94 1014 1 2 0.00 0.03
5:46 pm 17:46 Cloudy with Light Snow 25 -3.9 21 -6.1 85 85 N 13 20 29.94 1014 2 2 0.00 0.03
5:53 pm 17:53 Cloudy with Light Snow 25 -3.9 21 -6.1 85 85 N 12 19 29.90 1013 2 3 0.00 0.03
6:25 pm 18:25 Cloudy with Light Snow 25 -3.9 21 -6.1 85 85 N 15 24 29.94 1014 2 3 0.00 0.03
6:53 pm 18:53 Cloudy with Light Snow 25 -3.9 20 -6.7 81 81 N 16 26 29.92 1013 2 3 0.00 0.03
7:01 pm 19:01 Cloudy with Light Snow 25 -3.9 20 -6.7 81 81 N 14 22 29.97 1015 3 4 0.00 0.03
7:06 pm 19:06 Cloudy with Light Snow 25 -3.9 20 -6.7 81 81 N 12 19 29.97 1015 3 5 0.00 0.03
7:28 pm 19:28 Cloudy with Light Snow 25 -3.9 20 -6.7 81 81 N 14 22 29.97 1015 4 6 0.00 0.03
7:41 pm 19:41 Cloudy with Light Snow 25 -3.9 20 -6.7 81 81 N 14 22 29.97 1015 5 8 0.00 0.03
7:50 pm 19:50 Cloudy with Light Snow 25 -4 19 -7 80 80 N 12 19 29.97 1015 5 8 0.00 0.03
7:53 pm 19:53 Cloudy with Light Snow 25 -3.9 20 -6.7 81 81 N 14 22 29.94 1014 4 6 0.00 0.03
8:02 pm 20:02 Cloudy with Light Snow 25 -3.9 20 -6.7 81 81 N 13 20 29.97 1015 2 3 0.00 0.03
8:29 pm 20:29 Cloudy with Light Snow 25 -3.9 20 -6.7 81 81 N 13 20 29.97 1015 3 4 0.00 0.03
8:34 pm 20:34 Cloudy with Light Snow 25 -3.9 20 -6.7 81 81 N 9 15 29.97 1015 3 5 0.00 0.03
8:43 pm 20:43 Cloudy with Light Snow 25 -3.9 20 -6.7 81 81 N 9 15 29.97 1015 4 6 0.00 0.03
8:53 pm 20:53 Cloudy with Light Snow 25 -3.9 20 -6.7 81 81 N 10 17 29.94 1014 4 6 0.00 0.03
9:09 pm 21:09 Cloudy with Light Snow 25 -3.9 20 -6.7 81 81 N 10 17 29.97 1015 5 8 0.00 0.03
9:25 pm 21:25 Cloudy with Light Snow 25 -3.9 20 -6.7 81 81 N 10 17 29.97 1015 5 8 0.00 0.03
9:53 pm 21:53 Cloudy 25 -3.9 19 -7.2 78 78 N 9 15 29.95 1014 7 11 0.00 0.03
10:13 pm 22:13 Cloudy with Light Snow 25 -3.9 19 -7.2 78 78 N 14 22 30.00 1016 3 5 0.00 0.03
10:21 pm 22:21 Cloudy with Light Snow 25 -3.9 19 -7.2 78 78 N 14 22 30.00 1016 2 3 0.00 0.03
10:36 pm 22:36 Cloudy with Light Snow 24 -4.4 19 -7.2 81 81 N 13 20 30.00 1016 2 3 0.00 0.03
10:53 pm 22:53 Cloudy with Light Snow 24 -4.4 19 -7.2 81 81 N 12 19 29.95 1014 2 2 0.00 0.03
11:07 pm 23:07 Cloudy with Light Snow 24 -4.4 19 -7.2 81 81 N 12 19 30.00 1016 2 3 0.00 0.03
11:16 pm 23:16 Cloudy with Light Snow 24 -4.4 19 -7.2 81 81 N 10 17 30.00 1016 3 5 0.00 0.03
11:43 pm 23:43 Cloudy with Light Snow 24 -4.4 18 -7.8 77 77 N 10 17 30.00 1016 6 10 0.00 0.03
11:53 pm 23:53 Cloudy with Light Snow 23 -5 18 -7.8 81 81 N 14 22 29.96 1015 8 13 0.00 0.03

Powered by AerisWeather